EJU58KQ LIBD-LIMC

Flight info

Callsign EJU58KQ
Flight time 1h 14m
Altitude 38000
Route PISIP DCT VIE DCT LOMED DCT BEROK DCT MIVKI DCT GOLAS DCT MEBUR
Aircraft A319/M-SDE3FGHIRWY/LB1

Departure

Time 2026-04-26 05:46
Airport Bari Karol Wojtyła International Airport (LIBD)

Arrival

Time 2026-04-26 07:00
Airport Milan Malpensa International Airport (LIMC)
Time Latitude Longitude Altitude Speed Heading
2026-04-26 05:30 41.13618 16.76170 136 ft 0 kts 21°
2026-04-26 05:43 41.13619 16.76179 136 ft 4 kts 81°
2026-04-26 05:43 41.13581 16.76202 136 ft 8 kts 148°
2026-04-26 05:43 41.13586 16.76287 136 ft 12 kts 69°
2026-04-26 05:44 41.13619 16.76407 136 ft 15 kts 68°
2026-04-26 05:44 41.13669 16.76531 136 ft 16 kts 36°
2026-04-26 05:44 41.13781 16.76553 136 ft 16 kts
2026-04-26 05:44 41.13840 16.76682 132 ft 19 kts 69°
2026-04-26 05:45 41.13885 16.76817 124 ft 8 kts 44°
2026-04-26 05:45 41.13938 16.76799 125 ft 9 kts 310°
2026-04-26 05:45 41.13970 16.76718 125 ft 12 kts 296°
2026-04-26 05:45 41.14001 16.76592 125 ft 16 kts 256°
2026-04-26 05:46 41.13941 16.76370 128 ft 55 kts 249°
2026-04-26 05:46 41.13713 16.75560 140 ft 129 kts 249°
2026-04-26 05:46 41.13359 16.74318 548 ft 146 kts 252°
2026-04-26 05:46 41.13018 16.73044 1263 ft 146 kts 252°
2026-04-26 05:47 41.12643 16.71692 1682 ft 170 kts 252°
2026-04-26 05:47 41.12198 16.70114 2085 ft 196 kts 252°
2026-04-26 05:47 41.11705 16.68300 2543 ft 221 kts 257°
2026-04-26 05:47 41.11675 16.66182 3064 ft 243 kts 287°
2026-04-26 05:48 41.12188 16.64837 3448 ft 254 kts 312°
2026-04-26 05:48 41.13688 16.63593 4280 ft 263 kts 347°
2026-04-26 05:48 41.15511 16.63406 5366 ft 263 kts 358°
2026-04-26 05:48 41.17344 16.63407 6505 ft 263 kts 359°
2026-04-26 05:49 41.19188 16.63442 7382 ft 268 kts 360°
2026-04-26 05:49 41.22936 16.63176 9333 ft 274 kts 340°
2026-04-26 05:49 41.24575 16.61888 10252 ft 278 kts 316°
2026-04-26 05:50 41.25796 16.59810 10818 ft 297 kts 304°
2026-04-26 05:50 41.26981 16.57447 11275 ft 315 kts 303°
2026-04-26 05:50 41.28187 16.54973 12037 ft 322 kts 303°
2026-04-26 05:50 41.29409 16.52450 12859 ft 327 kts 302°
2026-04-26 05:51 41.30648 16.49893 13681 ft 332 kts 302°
2026-04-26 05:51 41.31900 16.47323 14422 ft 336 kts 302°
2026-04-26 05:51 41.33198 16.44673 15179 ft 339 kts 302°
2026-04-26 05:51 41.34510 16.42097 15929 ft 342 kts 304°
2026-04-26 05:52 41.35896 16.39512 16677 ft 345 kts 305°
2026-04-26 05:52 41.37314 16.36925 17426 ft 348 kts 305°
2026-04-26 05:52 41.38750 16.34320 18182 ft 351 kts 305°
2026-04-26 05:52 41.40193 16.31684 18838 ft 354 kts 305°
2026-04-26 05:53 41.41648 16.29011 19476 ft 357 kts 304°
2026-04-26 05:53 41.43105 16.26314 20117 ft 360 kts 304°
2026-04-26 05:53 41.44568 16.23593 20755 ft 363 kts 304°
2026-04-26 05:53 41.46044 16.20844 21399 ft 366 kts 304°
2026-04-26 05:54 41.47531 16.18075 22055 ft 369 kts 304°
2026-04-26 05:54 41.49025 16.15284 22674 ft 372 kts 304°
2026-04-26 05:54 41.50538 16.12452 23293 ft 376 kts 304°
2026-04-26 05:54 41.52058 16.09606 23849 ft 379 kts 304°
2026-04-26 05:55 41.53593 16.06733 24344 ft 382 kts 304°
2026-04-26 05:55 41.55145 16.03832 24829 ft 385 kts 304°
2026-04-26 05:55 41.56707 16.00903 25305 ft 388 kts 304°
2026-04-26 05:55 41.58276 15.97955 25767 ft 391 kts 304°
2026-04-26 05:56 41.59856 15.94983 26226 ft 394 kts 304°
2026-04-26 05:56 41.61449 15.91982 26678 ft 397 kts 304°
2026-04-26 05:56 41.63058 15.88949 27134 ft 400 kts 304°
2026-04-26 05:56 41.64670 15.85914 27578 ft 403 kts 305°
2026-04-26 05:57 41.66298 15.82845 28012 ft 406 kts 304°
2026-04-26 05:57 41.67937 15.79749 28451 ft 409 kts 305°
2026-04-26 05:57 41.69594 15.76623 28885 ft 412 kts 305°
2026-04-26 05:57 41.71257 15.73484 29316 ft 415 kts 305°
2026-04-26 05:58 41.72930 15.70319 29736 ft 418 kts 305°
2026-04-26 05:58 41.74614 15.67129 30201 ft 421 kts 305°
2026-04-26 05:58 41.76307 15.63920 30548 ft 424 kts 305°
2026-04-26 05:58 41.78011 15.60682 30882 ft 426 kts 305°
2026-04-26 05:59 41.79727 15.57423 31210 ft 429 kts 305°
2026-04-26 05:59 41.81453 15.54147 31532 ft 432 kts 305°
2026-04-26 05:59 41.83165 15.50892 31841 ft 434 kts 305°
2026-04-26 05:59 41.84902 15.47586 32265 ft 434 kts 304°
2026-04-26 06:00 41.86663 15.44232 32715 ft 433 kts 304°
2026-04-26 06:00 41.88392 15.40930 33160 ft 433 kts 304°
2026-04-26 06:00 41.90096 15.37666 33589 ft 432 kts 304°
2026-04-26 06:00 41.91817 15.34362 34035 ft 432 kts 304°
2026-04-26 06:01 41.93542 15.31052 34433 ft 432 kts 304°
2026-04-26 06:01 41.95260 15.27757 34816 ft 431 kts 304°
2026-04-26 06:01 41.96976 15.24462 35202 ft 430 kts 304°
2026-04-26 06:01 41.98689 15.21166 35584 ft 429 kts 304°
2026-04-26 06:02 42.00392 15.17885 35962 ft 428 kts 304°
2026-04-26 06:02 42.02096 15.14604 36361 ft 426 kts 304°
2026-04-26 06:02 42.03788 15.11345 36764 ft 424 kts 304°
2026-04-26 06:02 42.05474 15.08098 37136 ft 423 kts 304°
2026-04-26 06:03 42.07155 15.04858 37483 ft 422 kts 304°
2026-04-26 06:03 42.08830 15.01620 37829 ft 421 kts 304°
2026-04-26 06:03 42.10498 14.98385 38053 ft 421 kts 304°
2026-04-26 06:04 42.13813 14.91939 38082 ft 417 kts 304°
2026-04-26 06:04 42.17115 14.85516 38084 ft 417 kts 304°
2026-04-26 06:05 42.20417 14.79081 38087 ft 417 kts 304°
2026-04-26 06:05 42.23693 14.72692 38087 ft 417 kts 304°
2026-04-26 06:06 42.26986 14.66255 38086 ft 417 kts 304°
2026-04-26 06:06 42.30272 14.59787 38101 ft 417 kts 304°
2026-04-26 06:07 42.33553 14.53330 38107 ft 417 kts 304°
2026-04-26 06:07 42.36834 14.46879 38105 ft 416 kts 304°
2026-04-26 06:08 42.40102 14.40423 38101 ft 416 kts 304°
2026-04-26 06:08 42.43369 14.33965 38098 ft 416 kts 304°
2026-04-26 06:09 42.46632 14.27501 38095 ft 415 kts 303°
2026-04-26 06:09 42.49883 14.21033 38092 ft 415 kts 303°
2026-04-26 06:10 42.53135 14.14562 38094 ft 415 kts 303°
2026-04-26 06:10 42.56383 14.08092 38104 ft 415 kts 303°
2026-04-26 06:11 42.59625 14.01619 38117 ft 414 kts 303°
2026-04-26 06:11 42.62853 13.95158 38113 ft 413 kts 303°
2026-04-26 06:12 42.66074 13.88691 38115 ft 413 kts 303°
2026-04-26 06:12 42.69261 13.82265 38109 ft 413 kts 303°
2026-04-26 06:13 42.72471 13.75796 38104 ft 413 kts 303°
2026-04-26 06:13 42.75673 13.69326 38101 ft 413 kts 303°
2026-04-26 06:14 42.78871 13.62837 38101 ft 413 kts 303°
2026-04-26 06:14 42.82066 13.56350 38101 ft 413 kts 303°
2026-04-26 06:15 42.85267 13.49853 38105 ft 412 kts 303°
2026-04-26 06:15 42.88454 13.43353 38112 ft 412 kts 303°
2026-04-26 06:16 42.91624 13.36856 38113 ft 411 kts 303°
2026-04-26 06:16 42.94794 13.30359 38118 ft 411 kts 303°
2026-04-26 06:17 42.97949 13.23900 38115 ft 411 kts 303°
2026-04-26 06:17 43.01111 13.17401 38117 ft 411 kts 303°
2026-04-26 06:18 43.04274 13.10879 38110 ft 411 kts 303°
2026-04-26 06:18 43.07427 13.04358 38117 ft 411 kts 303°
2026-04-26 06:19 43.10580 12.97832 38123 ft 411 kts 303°
2026-04-26 06:19 43.13735 12.91292 38135 ft 412 kts 303°
2026-04-26 06:20 43.16885 12.84736 38142 ft 412 kts 303°
2026-04-26 06:20 43.20025 12.78174 38142 ft 412 kts 303°
2026-04-26 06:21 43.23171 12.71613 38141 ft 412 kts 303°
2026-04-26 06:21 43.26317 12.65026 38138 ft 413 kts 303°
2026-04-26 06:22 43.29447 12.58464 38135 ft 413 kts 303°
2026-04-26 06:22 43.32587 12.51859 38141 ft 414 kts 303°
2026-04-26 06:23 43.35733 12.45231 38158 ft 414 kts 303°
2026-04-26 06:23 43.38866 12.38609 38153 ft 413 kts 303°
2026-04-26 06:24 43.41993 12.31981 38151 ft 413 kts 303°
2026-04-26 06:24 43.45120 12.25350 38152 ft 413 kts 303°
2026-04-26 06:25 43.48249 12.18701 38158 ft 413 kts 303°
2026-04-26 06:25 43.51365 12.12057 38154 ft 413 kts 303°
2026-04-26 06:26 43.54460 12.05450 38153 ft 413 kts 303°
2026-04-26 06:26 43.57567 11.98791 38154 ft 413 kts 302°
2026-04-26 06:27 43.60671 11.92125 38156 ft 413 kts 302°
2026-04-26 06:27 43.63779 11.85441 38156 ft 414 kts 302°
2026-04-26 06:28 43.66881 11.78744 38153 ft 414 kts 302°
2026-04-26 06:28 43.69984 11.72050 38159 ft 414 kts 302°
2026-04-26 06:29 43.73083 11.65341 38151 ft 414 kts 302°
2026-04-26 06:29 43.76160 11.58658 38153 ft 414 kts 302°
2026-04-26 06:30 43.79253 11.51932 38155 ft 414 kts 302°
2026-04-26 06:30 43.82343 11.45203 38151 ft 414 kts 302°
2026-04-26 06:31 43.85423 11.38459 38157 ft 414 kts 302°
2026-04-26 06:31 43.88495 11.31713 38157 ft 414 kts 302°
2026-04-26 06:32 43.91577 11.24960 38167 ft 414 kts 302°
2026-04-26 06:32 43.94653 11.18216 38162 ft 414 kts 302°
2026-04-26 06:33 43.97716 11.11444 38161 ft 414 kts 302°
2026-04-26 06:33 44.00761 11.04696 38163 ft 414 kts 302°
2026-04-26 06:34 44.03327 10.97560 38178 ft 414 kts 287°
2026-04-26 06:34 44.04969 10.89882 38178 ft 414 kts 287°
2026-04-26 06:35 44.06609 10.82209 38192 ft 414 kts 287°
2026-04-26 06:35 44.08250 10.74535 38189 ft 414 kts 287°
2026-04-26 06:36 44.09891 10.66849 38203 ft 414 kts 287°
2026-04-26 06:36 44.11516 10.59155 38203 ft 414 kts 287°
2026-04-26 06:37 44.13137 10.51458 38206 ft 414 kts 286°
2026-04-26 06:37 44.14760 10.43754 38198 ft 415 kts 286°
2026-04-26 06:38 44.16377 10.36040 38181 ft 415 kts 286°
2026-04-26 06:38 44.17717 10.29625 38177 ft 415 kts 286°
2026-04-26 06:38 44.18527 10.25758 37895 ft 416 kts 286°
2026-04-26 06:39 44.19335 10.21899 37623 ft 415 kts 286°
2026-04-26 06:39 44.20145 10.18020 37349 ft 416 kts 285°
2026-04-26 06:39 44.20947 10.14152 37083 ft 416 kts 285°
2026-04-26 06:39 44.21763 10.10271 36810 ft 417 kts 288°
2026-04-26 06:40 44.22884 10.06551 36549 ft 418 kts 297°
2026-04-26 06:40 44.24437 10.03117 36292 ft 419 kts 305°
2026-04-26 06:40 44.26143 9.99822 36037 ft 420 kts 304°
2026-04-26 06:40 44.27927 9.96574 35432 ft 424 kts 312°
2026-04-26 06:41 44.30210 9.93874 34303 ft 436 kts 321°
2026-04-26 06:41 44.32667 9.91305 33054 ft 446 kts 322°
2026-04-26 06:41 44.35183 9.88701 31786 ft 454 kts 323°
2026-04-26 06:41 44.37744 9.86059 30796 ft 456 kts 323°
2026-04-26 06:42 44.40269 9.83445 30193 ft 449 kts 323°
2026-04-26 06:42 44.42758 9.80854 29390 ft 444 kts 323°
2026-04-26 06:42 44.45209 9.78292 28602 ft 439 kts 323°
2026-04-26 06:42 44.47634 9.75748 27862 ft 433 kts 323°
2026-04-26 06:43 44.50033 9.73219 27135 ft 428 kts 323°
2026-04-26 06:43 44.52371 9.70749 26457 ft 423 kts 323°
2026-04-26 06:43 44.54709 9.68281 25787 ft 418 kts 323°
2026-04-26 06:43 44.57009 9.65856 24957 ft 413 kts 323°
2026-04-26 06:44 44.59298 9.63439 24326 ft 408 kts 323°
2026-04-26 06:44 44.61548 9.61059 23727 ft 403 kts 323°
2026-04-26 06:44 44.63776 9.58704 23017 ft 399 kts 323°
2026-04-26 06:44 44.65978 9.56376 22384 ft 395 kts 323°
2026-04-26 06:45 44.68154 9.54069 21914 ft 387 kts 323°
2026-04-26 06:45 44.70288 9.51807 21439 ft 382 kts 323°
2026-04-26 06:45 44.72398 9.49569 20951 ft 378 kts 323°
2026-04-26 06:45 44.74484 9.47353 20478 ft 374 kts 323°
2026-04-26 06:46 44.76552 9.45151 19971 ft 372 kts 323°
2026-04-26 06:46 44.78607 9.42961 19485 ft 369 kts 323°
2026-04-26 06:46 44.80650 9.40787 18993 ft 366 kts 324°
2026-04-26 06:46 44.82674 9.38632 18499 ft 364 kts 324°
2026-04-26 06:47 44.84681 9.36493 17963 ft 361 kts 324°
2026-04-26 06:47 44.86677 9.34362 17478 ft 357 kts 324°
2026-04-26 06:47 44.88647 9.32254 16996 ft 354 kts 324°
2026-04-26 06:47 44.90602 9.30161 16513 ft 351 kts 324°
2026-04-26 06:48 44.92540 9.28088 16046 ft 349 kts 324°
2026-04-26 06:48 44.94471 9.26017 15574 ft 346 kts 323°
2026-04-26 06:48 44.96381 9.23965 15110 ft 344 kts 323°
2026-04-26 06:48 44.98281 9.21922 14647 ft 342 kts 323°
2026-04-26 06:49 45.00169 9.19889 14184 ft 341 kts 323°
2026-04-26 06:49 45.02051 9.17861 13694 ft 340 kts 323°
2026-04-26 06:49 45.03904 9.15867 13213 ft 337 kts 323°
2026-04-26 06:49 45.05786 9.13846 12731 ft 334 kts 323°
2026-04-26 06:50 45.07626 9.11869 12260 ft 331 kts 323°
2026-04-26 06:50 45.09430 9.09925 11793 ft 329 kts 323°
2026-04-26 06:50 45.11242 9.07968 11313 ft 326 kts 323°
2026-04-26 06:50 45.13037 9.06020 10832 ft 324 kts 323°
2026-04-26 06:51 45.14817 9.04091 10471 ft 319 kts 323°
2026-04-26 06:51 45.18200 9.00423 10207 ft 294 kts 323°
2026-04-26 06:51 45.19808 8.98677 9976 ft 288 kts 323°
2026-04-26 06:52 45.21399 8.96951 9662 ft 289 kts 323°
2026-04-26 06:52 45.23011 8.95203 9192 ft 290 kts 323°
2026-04-26 06:52 45.24603 8.93473 8831 ft 286 kts 323°
2026-04-26 06:52 45.26176 8.91762 8386 ft 282 kts 323°
2026-04-26 06:53 45.27725 8.90075 7706 ft 280 kts 323°
2026-04-26 06:53 45.29269 8.88388 6990 ft 281 kts 323°
2026-04-26 06:53 45.30815 8.86696 6348 ft 279 kts 323°
2026-04-26 06:53 45.32303 8.85068 6101 ft 261 kts 323°
2026-04-26 06:54 45.33694 8.83546 5976 ft 246 kts 323°
2026-04-26 06:54 45.35015 8.82102 5865 ft 234 kts 323°
2026-04-26 06:54 45.36284 8.80740 5756 ft 222 kts 327°
2026-04-26 06:54 45.37660 8.79884 5617 ft 213 kts 347°
2026-04-26 06:55 45.39134 8.79561 5283 ft 215 kts 353°
2026-04-26 06:55 45.40600 8.79279 4973 ft 212 kts 353°
2026-04-26 06:55 45.42043 8.78997 4650 ft 205 kts 353°
2026-04-26 06:55 45.43425 8.78725 4387 ft 197 kts 353°
2026-04-26 06:56 45.44758 8.78397 4084 ft 192 kts 349°
2026-04-26 06:56 45.46033 8.78034 3799 ft 186 kts 349°
2026-04-26 06:56 45.47275 8.77688 3556 ft 179 kts 350°
2026-04-26 06:56 45.48502 8.77349 3319 ft 176 kts 350°
2026-04-26 06:57 45.49701 8.77020 3089 ft 175 kts 350°
2026-04-26 06:57 45.50880 8.76695 2858 ft 175 kts 350°
2026-04-26 06:57 45.52073 8.76367 2626 ft 174 kts 350°
2026-04-26 06:57 45.53256 8.76042 2401 ft 173 kts 350°
2026-04-26 06:58 45.54412 8.75724 2180 ft 162 kts 349°
2026-04-26 06:58 45.55453 8.75437 1963 ft 144 kts 349°
2026-04-26 06:58 45.56394 8.75178 1778 ft 134 kts 349°
2026-04-26 06:58 45.57295 8.74930 1598 ft 130 kts 349°
2026-04-26 06:59 45.58178 8.74687 1421 ft 129 kts 349°
2026-04-26 06:59 45.59055 8.74446 1251 ft 128 kts 349°
2026-04-26 06:59 45.59931 8.74207 1065 ft 128 kts 349°
2026-04-26 06:59 45.60805 8.73967 917 ft 128 kts 349°
2026-04-26 07:00 45.61675 8.73720 788 ft 127 kts 349°
2026-04-26 07:00 45.62472 8.73502 745 ft 99 kts 349°
2026-04-26 07:00 45.62972 8.73361 744 ft 53 kts 345°
2026-04-26 07:00 45.63231 8.73128 749 ft 30 kts 308°
2026-04-26 07:01 45.63337 8.72908 751 ft 26 kts 304°
2026-04-26 07:01 45.63453 8.72710 752 ft 25 kts 331°
2026-04-26 07:01 45.63611 8.72660 751 ft 23 kts 349°
2026-04-26 07:01 45.63773 8.72616 751 ft 24 kts 349°
2026-04-26 07:02 45.63941 8.72569 752 ft 25 kts 349°
2026-04-26 07:02 45.64093 8.72518 751 ft 22 kts 348°
2026-04-26 07:02 45.64246 8.72475 751 ft 21 kts 348°
2026-04-26 07:02 45.64379 8.72437 750 ft 17 kts 348°
2026-04-26 07:03 45.64439 8.72373 752 ft 11 kts 261°
2026-04-26 07:03 45.64463 8.72298 750 ft 10 kts 337°
2026-04-26 07:03 45.64520 8.72282 748 ft 4 kts 349°
2026-04-26 07:03 45.64526 8.72280 748 ft 0 kts 349°